Home > Weather > Sioux Falls > Past weeks

Flag for USA Past Weather in Sioux Falls, South Dakota, USA — Yesterday and Last 2 Weeks

Now
83 °F

Sunny.


Feels Like: 83 °F
Forecast: 65 / 87 °F
Wind: 9 mph from South

Location: Foss Field

Current Time: Jul 25, 2016 at 7:42:30 PM

Latest Report: Jul 25, 2016 at 6:56 PM


Visibility: 10 mi

Pressure: 30.02 "Hg

Humidity: 48%

Dew Point: 61 °F

Location of Sioux FallsLocation

Past Weather in Sioux Falls — Graph

°F

Sioux Falls Temperature Yesterday

Maximum temperature yesterday: 79 °F (at 11:56 AM)
Minimum temperature yesterday: 67 °F (at 5:56 AM)
Average temperature yesterday: 74 °F

High & Low Weather Summary for the Past Weeks

 TemperatureHumidityPressure
High93 °F (Jul 21, 4:56 PM)100% (Jul 10, 8:56 PM)30.18 "Hg (Jul 10, 8:56 PM)
Low53 °F (Jul 15, 3:56 AM)29% (Jul 12, 3:56 PM)29.52 "Hg (Jul 11, 2:56 PM)
Average77 °F71%29.91 "Hg
* Reported Jul 10 5:56 PM — Jul 25 5:56 PM, Sioux Falls, Weather by CustomWeather, © 2016

Note: Actual official high and low records may vary slightly from our data, if they occured in-between our weather recording intervals... More about our weather records

Advertising

Sioux Falls Weather History for the Previous 24 Hours

Scroll right to see more
 ConditionsComfort  
Time TempWeatherWind HumidityBarometerVisibility
5:56 PM
Mon, Jul 25
84 °FSunny.8 mph45%30.03 "Hg10 mi
4:56 PM84 °FSunny.7 mph48%30.04 "Hg10 mi
3:56 PM85 °FSunny.7 mph45%30.06 "Hg10 mi
2:56 PM84 °FSunny.7 mph41%30.07 "Hg10 mi
1:56 PM83 °FSunny.13 mph41%30.09 "Hg10 mi
12:56 PM83 °FPassing clouds.9 mph43%30.09 "Hg10 mi
11:56 AM82 °FPassing clouds.6 mph48%30.10 "Hg10 mi
10:56 AM79 °FPassing clouds.5 mph56%30.11 "Hg10 mi
9:56 AM77 °FPassing clouds.5 mph62%30.11 "Hg10 mi
8:56 AM74 °FPassing clouds.No wind69%30.10 "Hg10 mi
7:56 AM69 °FPassing clouds.No wind76%30.10 "Hg10 mi
6:56 AM64 °FPassing clouds.3 mph81%30.10 "Hg10 mi
5:56 AM59 °FPassing clouds.No wind93%30.07 "Hg10 mi
4:56 AM60 °FClear.No wind90%30.06 "Hg10 mi
3:56 AM63 °FClear.No wind84%30.05 "Hg10 mi
2:56 AM64 °FClear.No wind81%30.06 "Hg10 mi
1:56 AM65 °FClear.3 mph81%30.06 "Hg10 mi
12:56 AM67 °FClear.3 mph81%30.06 "Hg10 mi
11:56 PM
Sun, Jul 24
68 °FPassing clouds.3 mph82%30.05 "Hg10 mi
10:56 PM68 °FPassing clouds.3 mph84%30.06 "Hg10 mi
9:56 PM71 °FPassing clouds.3 mph78%30.05 "Hg10 mi
8:56 PM73 °FPassing clouds.3 mph74%30.02 "Hg10 mi
7:56 PM77 °FPassing clouds.3 mph62%30.01 "Hg10 mi
Weather by CustomWeather, © 2016

See weather overviewHow to use our weather pages